User: anonymous   Login
Location: Caltech
(34.1382°N, 118.1253°W)
Time: 00:19:38
(UTC-07:00)
Language:

ASTRO E2 - Orbit

View from above orbital plane
View from above orbital plane
View from above satellite
View from above satellite

Ground track
Ground track

The orbit data is extracted from the following two-line orbital elements,

1 28773U 05025A   16126.23665211  .00001914  00000-0  96364-4 0  9998
2 28773  31.3835  59.6910 0005028 218.9804 141.0480 15.14674376595426
Epoch (UTC): 05 May 2016 05:40:46
Eccentricity: 0.0005028
inclination: 31.3835°
perigee height: 518 km
apogee height: 525 km
right ascension of ascending node: 59.6910°
argument of perigee: 218.9804°
revolutions per day: 15.14674376
mean anomaly at epoch: 141.0480°
orbit number at epoch: 59542

The dashed part of the orbit path shows where the satellite is in the earth's shadow,  

DLR